timestamp,wind_dir_avg,wind_spd_max_dir,wind_spd_avg,wind_spd_gust,battery_voltage,lat,long
2017-12-17 00:00:00+00:00,338.0,338.0,11.64,13.89,,47.59359,-54.27349
2017-12-17 00:10:00+00:00,335.0,334.0,13.53,16.38,,47.59359,-54.27349
2017-12-17 00:20:00+00:00,332.0,339.0,10.77,12.58,,47.59359,-54.27349
2017-12-17 00:30:00+00:00,331.0,334.0,11.13,14.14,,47.59359,-54.27349
2017-12-17 00:40:00+00:00,332.0,337.0,11.45,14.97,,47.59359,-54.27349
2017-12-17 00:50:00+00:00,327.0,335.0,10.06,12.04,,47.59359,-54.27349
2017-12-17 01:00:00+00:00,325.0,329.0,10.25,12.83,,47.59359,-54.27349
2017-12-17 01:10:00+00:00,326.0,322.0,10.55,12.2,,47.59359,-54.27349
2017-12-17 01:20:00+00:00,321.0,331.0,9.36,11.46,,47.59359,-54.27349
2017-12-17 01:30:00+00:00,321.0,322.0,9.68,11.18,,47.59359,-54.27349
2017-12-17 01:40:00+00:00,318.0,327.0,9.61,10.96,,47.59359,-54.27349
2017-12-17 01:50:00+00:00,317.0,311.0,9.84,11.51,,47.59359,-54.27349
2017-12-17 02:00:00+00:00,311.0,307.0,9.73,11.04,,47.59359,-54.27349
2017-12-17 02:10:00+00:00,320.0,320.0,9.5,11.58,,47.59359,-54.27349
2017-12-17 02:20:00+00:00,306.0,298.0,9.89,12.76,,47.59359,-54.27349
2017-12-17 02:30:00+00:00,316.0,312.0,10.59,12.23,,47.59359,-54.27349
2017-12-17 02:40:00+00:00,301.0,308.0,10.11,12.18,,47.59359,-54.27349
2017-12-17 02:50:00+00:00,313.0,309.0,9.84,12.69,,47.59359,-54.27349
2017-12-17 03:00:00+00:00,303.0,296.0,11.25,13.62,,47.59359,-54.27349
2017-12-17 03:10:00+00:00,322.0,321.0,12.4,14.83,,47.59359,-54.27349
2017-12-17 03:20:00+00:00,313.0,310.0,8.8,11.6,,47.59359,-54.27349
2017-12-17 03:30:00+00:00,301.0,304.0,9.41,11.42,,47.59359,-54.27349
2017-12-17 03:40:00+00:00,285.0,288.0,10.62,12.83,,47.59359,-54.27349
2017-12-17 03:50:00+00:00,296.0,301.0,10.0,14.81,,47.59359,-54.27349
2017-12-17 04:00:00+00:00,294.0,295.0,9.99,13.33,,47.59359,-54.27349
2017-12-17 04:10:00+00:00,295.0,299.0,8.41,9.75,,47.59359,-54.27349
2017-12-17 04:20:00+00:00,283.0,288.0,9.03,10.2,,47.59359,-54.27349
2017-12-17 04:30:00+00:00,303.0,307.0,9.96,12.04,,47.59359,-54.27349
2017-12-17 04:40:00+00:00,292.0,289.0,8.88,10.55,,47.59359,-54.27349
2017-12-17 04:50:00+00:00,299.0,307.0,10.64,12.94,,47.59359,-54.27349
2017-12-17 05:00:00+00:00,299.0,306.0,9.29,10.84,,47.59359,-54.27349
2017-12-17 05:10:00+00:00,301.0,298.0,9.25,10.87,,47.59359,-54.27349
2017-12-17 05:20:00+00:00,296.0,289.0,10.81,13.67,,47.59359,-54.27349
2017-12-17 05:30:00+00:00,296.0,291.0,9.41,10.89,,47.59359,-54.27349
2017-12-17 05:40:00+00:00,294.0,292.0,9.8,11.7,,47.59359,-54.27349
2017-12-17 05:50:00+00:00,293.0,288.0,10.91,12.6,,47.59359,-54.27349
2017-12-17 06:00:00+00:00,309.0,306.0,8.99,11.06,,47.59359,-54.27349
2017-12-17 06:10:00+00:00,306.0,317.0,9.64,10.8,,47.59359,-54.27349
2017-12-17 06:20:00+00:00,294.0,298.0,8.92,10.98,,47.59359,-54.27349
2017-12-17 06:30:00+00:00,296.0,299.0,9.86,12.18,,47.59359,-54.27349
2017-12-17 06:40:00+00:00,290.0,295.0,10.31,13.42,,47.59359,-54.27349
2017-12-17 06:50:00+00:00,301.0,297.0,8.98,10.55,,47.59359,-54.27349
2017-12-17 07:00:00+00:00,296.0,300.0,8.36,9.69,,47.59359,-54.27349
2017-12-17 07:10:00+00:00,298.0,305.0,8.65,10.47,,47.59359,-54.27349
2017-12-17 07:20:00+00:00,305.0,310.0,9.51,12.38,,47.59359,-54.27349
2017-12-17 07:30:00+00:00,293.0,291.0,10.79,13.24,,47.59359,-54.27349
2017-12-17 07:40:00+00:00,305.0,311.0,10.19,11.95,,47.59359,-54.27349
2017-12-17 07:50:00+00:00,308.0,310.0,10.69,12.69,,47.59359,-54.27349
2017-12-17 08:00:00+00:00,300.0,302.0,9.47,10.86,,47.59359,-54.27349
2017-12-17 08:10:00+00:00,295.0,293.0,10.17,11.75,,47.59359,-54.27349
2017-12-17 08:20:00+00:00,289.0,288.0,11.18,12.82,,47.59359,-54.27349
2017-12-17 08:30:00+00:00,297.0,302.0,9.22,10.65,,47.59359,-54.27349
2017-12-17 08:40:00+00:00,274.0,280.0,9.36,11.31,,47.59359,-54.27349
2017-12-17 08:50:00+00:00,287.0,285.0,7.74,8.72,,47.59359,-54.27349
2017-12-17 09:00:00+00:00,294.0,290.0,10.21,13.12,,47.59359,-54.27349
2017-12-17 09:10:00+00:00,302.0,312.0,10.04,11.96,,47.59359,-54.27349
2017-12-17 09:20:00+00:00,303.0,297.0,10.83,12.65,,47.59359,-54.27349
2017-12-17 09:30:00+00:00,306.0,310.0,9.64,11.11,,47.59359,-54.27349
2017-12-17 09:40:00+00:00,307.0,315.0,8.33,9.92,,47.59359,-54.27349
2017-12-17 09:50:00+00:00,295.0,301.0,9.33,11.59,,47.59359,-54.27349
2017-12-17 10:00:00+00:00,300.0,292.0,8.68,10.8,,47.59359,-54.27349
2017-12-17 10:10:00+00:00,303.0,313.0,7.25,8.36,,47.59359,-54.27349
2017-12-17 10:20:00+00:00,282.0,285.0,7.66,9.0,,47.59359,-54.27349
2017-12-17 10:30:00+00:00,297.0,299.0,9.72,11.75,,47.59359,-54.27349
2017-12-17 10:40:00+00:00,292.0,297.0,9.59,10.63,,47.59359,-54.27349
2017-12-17 10:50:00+00:00,301.0,302.0,8.71,10.52,,47.59359,-54.27349
2017-12-17 11:00:00+00:00,307.0,315.0,7.96,9.16,,47.59359,-54.27349
2017-12-17 11:10:00+00:00,297.0,293.0,10.04,11.98,,47.59359,-54.27349
2017-12-17 11:20:00+00:00,311.0,315.0,9.7,10.69,,47.59359,-54.27349
2017-12-17 11:30:00+00:00,305.0,306.0,10.42,11.81,,47.59359,-54.27349
2017-12-17 11:40:00+00:00,293.0,293.0,8.33,9.52,,47.59359,-54.27349
2017-12-17 11:50:00+00:00,304.0,289.0,8.88,11.95,,47.59359,-54.27349
2017-12-17 12:00:00+00:00,301.0,296.0,10.58,12.49,,47.59359,-54.27349
2017-12-17 12:10:00+00:00,301.0,300.0,10.03,12.08,,47.59359,-54.27349
2017-12-17 12:20:00+00:00,307.0,311.0,9.66,11.1,,47.59359,-54.27349
2017-12-17 12:30:00+00:00,314.0,315.0,8.16,10.09,,47.59359,-54.27349
2017-12-17 12:40:00+00:00,301.0,301.0,10.44,13.14,,47.59359,-54.27349
2017-12-17 12:50:00+00:00,309.0,308.0,11.16,13.93,,47.59359,-54.27349
2017-12-17 13:00:00+00:00,311.0,316.0,11.16,12.63,,47.59359,-54.27349
2017-12-17 13:10:00+00:00,303.0,303.0,11.23,14.21,,47.59359,-54.27349
2017-12-17 13:20:00+00:00,309.0,310.0,10.39,12.51,,47.59359,-54.27349
2017-12-17 13:30:00+00:00,303.0,301.0,10.36,12.41,,47.59359,-54.27349
2017-12-17 13:40:00+00:00,306.0,305.0,13.12,15.86,,47.59359,-54.27349
2017-12-17 13:50:00+00:00,302.0,299.0,12.99,15.22,,47.59359,-54.27349
2017-12-17 14:00:00+00:00,309.0,304.0,12.59,14.56,,47.59359,-54.27349
2017-12-17 14:10:00+00:00,299.0,296.0,12.31,14.65,,47.59359,-54.27349
2017-12-17 14:20:00+00:00,311.0,308.0,12.07,14.0,,47.59359,-54.27349
2017-12-17 14:30:00+00:00,308.0,310.0,10.55,13.06,,47.59359,-54.27349
2017-12-17 14:40:00+00:00,306.0,306.0,9.64,12.26,,47.59359,-54.27349
2017-12-17 14:50:00+00:00,297.0,299.0,9.78,11.91,,47.59359,-54.27349
2017-12-17 15:00:00+00:00,299.0,295.0,10.4,12.09,,47.59359,-54.27349
2017-12-17 15:10:00+00:00,300.0,299.0,11.25,13.42,,47.59359,-54.27349
2017-12-17 15:20:00+00:00,299.0,294.0,12.95,15.03,,47.59359,-54.27349
2017-12-17 15:30:00+00:00,297.0,304.0,10.07,12.57,,47.59359,-54.27349
2017-12-17 15:40:00+00:00,294.0,295.0,10.06,11.91,,47.59359,-54.27349
2017-12-17 15:50:00+00:00,295.0,296.0,9.92,11.71,,47.59359,-54.27349
2017-12-17 16:00:00+00:00,293.0,294.0,8.05,9.22,,47.59359,-54.27349
2017-12-17 16:10:00+00:00,290.0,282.0,7.47,9.06,,47.59359,-54.27349
2017-12-17 16:20:00+00:00,312.0,322.0,8.82,10.72,,47.59359,-54.27349
2017-12-17 16:30:00+00:00,312.0,314.0,9.47,10.63,,47.59359,-54.27349
2017-12-17 16:40:00+00:00,302.0,305.0,10.12,11.43,,47.59359,-54.27349
2017-12-17 16:50:00+00:00,312.0,311.0,9.29,10.89,,47.59359,-54.27349
2017-12-17 17:00:00+00:00,308.0,304.0,7.74,9.43,,47.59359,-54.27349
2017-12-17 17:10:00+00:00,314.0,308.0,9.53,12.08,,47.59359,-54.27349
2017-12-17 17:20:00+00:00,301.0,300.0,8.75,10.78,,47.59359,-54.27349
2017-12-17 17:30:00+00:00,311.0,314.0,9.21,12.3,,47.59359,-54.27349
2017-12-17 17:40:00+00:00,311.0,307.0,8.52,10.36,,47.59359,-54.27349
2017-12-17 17:50:00+00:00,295.0,295.0,7.25,9.2,,47.59359,-54.27349
2017-12-17 18:00:00+00:00,298.0,301.0,6.92,8.4,,47.59359,-54.27349
2017-12-17 18:10:00+00:00,309.0,311.0,8.45,9.72,,47.59359,-54.27349
2017-12-17 18:20:00+00:00,303.0,301.0,8.08,9.7,,47.59359,-54.27349
2017-12-17 18:30:00+00:00,309.0,313.0,7.2,8.4,,47.59359,-54.27349
2017-12-17 18:40:00+00:00,315.0,314.0,7.55,9.5,,47.59359,-54.27349
2017-12-17 18:50:00+00:00,305.0,309.0,7.59,9.15,,47.59359,-54.27349
2017-12-17 19:00:00+00:00,311.0,318.0,8.89,9.98,,47.59359,-54.27349
2017-12-17 19:10:00+00:00,309.0,303.0,7.96,9.48,,47.59359,-54.27349
2017-12-17 19:20:00+00:00,306.0,305.0,7.22,9.4,,47.59359,-54.27349
2017-12-17 19:30:00+00:00,304.0,307.0,6.65,9.35,,47.59359,-54.27349
2017-12-17 19:40:00+00:00,292.0,297.0,6.43,7.62,,47.59359,-54.27349
2017-12-17 19:50:00+00:00,298.0,296.0,7.0,8.82,,47.59359,-54.27349
2017-12-17 20:00:00+00:00,305.0,318.0,7.1,8.48,,47.59359,-54.27349
2017-12-17 20:10:00+00:00,297.0,311.0,5.3,6.44,,47.59359,-54.27349
2017-12-17 20:20:00+00:00,298.0,307.0,5.36,6.45,,47.59359,-54.27349
2017-12-17 20:30:00+00:00,292.0,277.0,7.12,8.8,,47.59359,-54.27349
2017-12-17 20:40:00+00:00,288.0,296.0,6.56,8.19,,47.59359,-54.27349
2017-12-17 20:50:00+00:00,299.0,306.0,6.78,7.97,,47.59359,-54.27349
2017-12-17 21:00:00+00:00,292.0,295.0,6.89,8.14,,47.59359,-54.27349
2017-12-17 21:10:00+00:00,292.0,294.0,7.91,9.17,,47.59359,-54.27349
2017-12-17 21:20:00+00:00,299.0,302.0,7.98,9.11,,47.59359,-54.27349
2017-12-17 21:30:00+00:00,299.0,299.0,9.21,11.07,,47.59359,-54.27349
2017-12-17 21:40:00+00:00,295.0,300.0,9.1,10.61,,47.59359,-54.27349
2017-12-17 21:50:00+00:00,305.0,306.0,10.36,11.63,,47.59359,-54.27349
2017-12-17 22:00:00+00:00,302.0,302.0,9.97,12.79,,47.59359,-54.27349
2017-12-17 22:10:00+00:00,304.0,290.0,11.64,13.41,,47.59359,-54.27349
2017-12-17 22:20:00+00:00,309.0,315.0,11.02,12.71,,47.59359,-54.27349
2017-12-17 22:30:00+00:00,309.0,304.0,11.26,12.97,,47.59359,-54.27349
2017-12-17 22:40:00+00:00,306.0,304.0,10.95,12.39,,47.59359,-54.27349
2017-12-17 22:50:00+00:00,307.0,307.0,9.61,10.86,,47.59359,-54.27349
2017-12-17 23:00:00+00:00,311.0,309.0,10.1,11.0,,47.59359,-54.27349
2017-12-17 23:10:00+00:00,312.0,309.0,9.8,11.4,,47.59359,-54.27349
2017-12-17 23:20:00+00:00,311.0,313.0,10.7,12.69,,47.59359,-54.27349
2017-12-17 23:30:00+00:00,307.0,312.0,11.83,14.47,,47.59359,-54.27349
2017-12-17 23:40:00+00:00,311.0,321.0,11.87,13.8,,47.59359,-54.27349
2017-12-17 23:50:00+00:00,313.0,309.0,8.46,9.5,,47.59359,-54.27349
